Regional Weather Roundup
Issued by NWS

Home | Current Version | Previous Version | Text Only | Print | Product List | Glossary Off
Versions: 1 2 3 4 5 6 7 8 9 10 11 12 13 14 15 16 17 18 19 20 21 22 23 24 25 26 27 28 29 30 31 32 33 34 35 36 37 38 39 40 41 42 43 44 45 46 47 48 49 50

000
ASUS45 KBOI 300310
RWRID
WEATHER ROUNDUP FOR IDAHO
NATIONAL WEATHER SERVICE BOISE ID
900 PM MDT SUN MAR 29 2015

NOTE: "FAIR" INDICATES FEW OR NO CLOUDS BELOW 12000 FEET
WITH NO SIGNIFICANT WEATHER AND/OR OBSTRUCTIONS TO VISIBILITY

IDZ012-014-300400-
SOUTHWEST IDAHO


CITY           SKY/WX    TMP DP  RH WIND       PRES   REMARKS
BOISE          CLEAR     60  26  27 W3        30.15F
CALDWELL       CLEAR     57  28  33 CALM      30.16S
$$

IDZ016-017-300400-
SOUTHCENTRAL IDAHO


CITY           SKY/WX    TMP DP  RH WIND       PRES   REMARKS
BURLEY         CLEAR     46  23  40 SW3       30.18R
JEROME         CLEAR     54  17  23 CALM      30.19S
TWIN FALLS     CLEAR     43  20  39 S5        30.20R
$$

IDZ019>023-300400-
SOUTHEAST IDAHO


CITY           SKY/WX    TMP DP  RH WIND       PRES   REMARKS
IDAHO FALLS    CLEAR     51  18  27 S7        30.20R
POCATELLO      CLEAR     47  17  30 S12       30.20R
REXBURG        CLEAR     49  16  26 S7        30.18S
$$

IDZ006-010-011-018-031-032-300400-
CENTRAL IDAHO MOUNTAINS


CITY           SKY/WX    TMP DP  RH WIND       PRES   REMARKS
MCCALL         MOCLDY    44  32  62 NE5       30.20S
HAILEY         PTCLDY    50  27  40 CALM      30.21R
STANLEY          N/A     37  25  61 S5        30.25R WCI  33
SALMON         PTCLDY    50  27  40 CALM      30.16R
CHALLIS        PTCLDY    53  22  29 W12       30.17R
$$

IDZ002-004-006-007-026-300400-
NORTHERN IDAHO


CITY           SKY/WX    TMP DP  RH WIND       PRES   REMARKS
LEWISTON       MOCLDY    63  39  41 CALM      30.13S
LOWELL           N/A     48  44  86 N5        30.16R
COEUR D`ALENE  CLOUDY    52  36  54 SE6       30.14S
MULLAN PASS    MOCLDY    37  31  78 VRB5      30.17F WCI  33
$$


USA.gov is the U.S. government's official web portal to all federal, state and local government web resources and services.